Weather History for KDAN - August, 2012

Change the Weather History Date:

Tuesday, August 21, 2012

  Actual Average Record
Temperature  
Mean Temperature 74 °F 77 °F  
Max Temperature 85 °F 86 °F 104 °F (1983)
Min Temperature 63 °F 68 °F 53 °F (1981)
Degree Days  
Heating Degree Days 0 0  
Month to date heating degree days 0 0  
Since 1 June heating degree days 3 3  
Since 1 July heating degree days 0 0  
Cooling Degree Days 9 12  
Month to date cooling degree days 272 266  
Year to date cooling degree days 1269 1119  
Since 1 June cooling degree days 1070 975  
Growing Degree Days 22 (Base 50)    
Moisture  
Dew Point 63 °F    
Average Humidity 70    
Maximum Humidity 93    
Minimum Humidity 47    
Precipitation  
Precipitation T in 0.14 in 2.17 in (1961)
Month to date precipitation 1.44 2.58  
Year to date precipitation 20.08 28.90  
Snow  
Snow 0.00 in - - ()
Month to date snowfall 0.0  
Since 1 June snowfall 0.0  
Since 1 July snowfall 0.0  
Snow Depth 0.00 in    
Sea Level Pressure  
Sea Level Pressure 30.01 in    
Wind  
Wind Speed 1 mph (ENE)    
Max Wind Speed 8 mph    
Max Gust Speed 10 mph    
Visibility 5 miles    
Events Fog , Rain    
T = Trace of Precipitation, MM = Missing Value Source: NWS Daily Summary

Daily Weather History Graph

Daily Weather History Graph

Search for Another Location

Airport or City:

Trip Planner

Search our weather history database for the weather conditions in past years. The results will help you decide how hot, cold, wet, or windy it might be!

Date:

Astronomy

Aug. 21, 2012 Rise Set
Actual Time 6:40 AM EDT 7:59 PM EDT
Civil Twilight 6:13 AM EDT 8:26 PM EDT
Nautical Twilight 5:40 AM EDT 8:59 PM EDT
Astronomical Twilight 5:06 AM EDT 9:32 PM EDT
Moon 10:58 AM EDT (8/21) 10:09 PM EDT (8/21)
Length of Visible Light 14h 13m
Length of Day
13h 19m
Waxing Crescent, 19% of the Moon is Illuminated
Aug 21
Waxing Crescent
Aug 24
First Quarter
Aug 31
Full
Sep 8
Last Quarter
Sep 15
New

Hourly Weather History & Observations

Time (EDT) Temp. Heat Index Dew Point Humidity Pressure Visibility Wind Dir Wind Speed Gust Speed Precip Events Conditions
12:53 AM 68.0 °F - 64.9 °F 90% 29.98 in 7.0 mi SSW 3.5 mph - 0.00 in Rain Light Rain
1:53 AM 68.0 °F - 64.9 °F 90% 29.97 in 4.0 mi Calm Calm - 0.00 in   Mostly Cloudy
2:53 AM 68.0 °F - 64.9 °F 90% 29.97 in 4.0 mi Calm Calm - N/A   Scattered Clouds
3:53 AM 66.0 °F - 64.0 °F 93% 29.98 in 2.5 mi Calm Calm - N/A   Partly Cloudy
4:08 AM 64.4 °F - 64.4 °F 100% 30.00 in 0.8 mi Calm Calm - N/A   Scattered Clouds
4:18 AM 64.4 °F - 62.6 °F 94% 30.00 in 1.2 mi Calm Calm - N/A   Scattered Clouds
4:32 AM 64.4 °F - 62.6 °F 94% 30.00 in 3.0 mi Calm Calm - N/A   Scattered Clouds
4:43 AM 64.4 °F - 62.6 °F 94% 30.00 in 2.5 mi Calm Calm - 0.01 in   Mostly Cloudy
4:53 AM 64.9 °F - 63.0 °F 93% 29.97 in 2.5 mi Calm Calm - 0.01 in   Scattered Clouds
5:03 AM 64.4 °F - 62.6 °F 94% 30.00 in 1.0 mi Calm Calm - N/A   Partly Cloudy
5:15 AM 64.4 °F - 62.6 °F 94% 30.00 in 1.0 mi Calm Calm - N/A   Mist
5:23 AM 64.4 °F - 62.6 °F 94% 30.00 in 0.5 mi Calm Calm - N/A Fog Fog
5:53 AM 64.0 °F - 62.1 °F 93% 29.97 in 0.5 mi Calm Calm - N/A Fog Fog
6:18 AM 64.4 °F - 62.6 °F 94% 30.01 in 1.2 mi Calm Calm - N/A   Partly Cloudy
6:25 AM 64.4 °F - 62.6 °F 94% 30.01 in 3.0 mi Calm Calm - N/A   Partly Cloudy
6:53 AM 63.0 °F - 61.0 °F 93% 29.99 in 2.0 mi Calm Calm - N/A   Clear
7:07 AM 64.4 °F - 62.6 °F 94% 30.02 in 1.2 mi Calm Calm - N/A   Clear
7:16 AM 62.6 °F - 60.8 °F 94% 30.02 in 3.0 mi Calm Calm - N/A   Clear
7:38 AM 64.4 °F - 62.6 °F 94% 30.03 in 2.0 mi Calm Calm - N/A   Clear
7:47 AM 64.4 °F - 62.6 °F 94% 30.03 in 3.0 mi Calm Calm - N/A   Partly Cloudy
7:53 AM 64.9 °F - 63.0 °F 93% 30.01 in 3.0 mi Calm Calm - N/A   Partly Cloudy
8:01 AM 64.4 °F - 62.6 °F 94% 30.04 in 2.0 mi Calm Calm - N/A   Partly Cloudy
8:39 AM 66.2 °F - 64.4 °F 94% 30.05 in 0.8 mi Calm Calm - N/A   Mist
8:49 AM 68.0 °F - 66.2 °F 94% 30.05 in 1.0 mi Calm Calm - N/A   Mist
8:53 AM 68.0 °F - 66.0 °F 93% 30.02 in 1.2 mi Calm Calm - N/A   Mostly Cloudy
9:04 AM 68.0 °F - 66.2 °F 94% 30.05 in 3.0 mi Calm Calm - N/A   Mostly Cloudy
9:31 AM 69.8 °F - 64.4 °F 83% 30.05 in 9.0 mi Calm Calm - N/A   Scattered Clouds
9:53 AM 73.0 °F - 66.0 °F 79% 30.03 in 10.0 mi Calm Calm - N/A   Partly Cloudy
10:53 AM 77.0 °F - 64.9 °F 66% 30.04 in 10.0 mi Calm Calm - N/A   Clear
11:53 AM 80.1 °F 81.5 °F 63.0 °F 56% 30.04 in 10.0 mi SSE 4.6 mph - N/A   Partly Cloudy
12:53 PM 81.0 °F 81.9 °F 62.1 °F 52% 30.02 in 10.0 mi Calm Calm - N/A   Partly Cloudy
1:53 PM 81.0 °F 81.7 °F 61.0 °F 50% 30.02 in 10.0 mi Calm Calm - N/A   Clear
2:53 PM 82.0 °F 83.0 °F 62.1 °F 51% 30.01 in 10.0 mi ENE 3.5 mph - N/A   Partly Cloudy
3:53 PM 82.0 °F 83.0 °F 62.1 °F 51% 29.99 in 10.0 mi NNE 5.8 mph - N/A   Overcast
4:53 PM 82.9 °F 83.2 °F 60.1 °F 46% 29.99 in 10.0 mi NE 3.5 mph - N/A   Partly Cloudy
5:53 PM 82.0 °F 83.1 °F 63.0 °F 52% 29.99 in 10.0 mi NE 6.9 mph - N/A   Clear
6:53 PM 82.0 °F 83.0 °F 62.1 °F 51% 30.00 in 10.0 mi ENE 4.6 mph - N/A   Clear
7:53 PM 79.0 °F - 64.0 °F 60% 30.01 in 10.0 mi Calm Calm - N/A   Clear
8:53 PM 73.9 °F - 66.0 °F 76% 30.04 in 10.0 mi Calm Calm - N/A   Clear
9:53 PM 70.0 °F - 64.9 °F 84% 30.06 in 10.0 mi Calm Calm - N/A   Clear
10:53 PM 68.0 °F - 64.0 °F 87% 30.06 in 10.0 mi NE 5.8 mph - N/A   Clear
11:53 PM 68.0 °F - 64.0 °F 87% 30.07 in 10.0 mi Calm Calm - N/A   Clear